Location: Aufkirchen
(47.9603°N, 11.3653°E)
Time: 11:04:04
(UTC+01:00)

Tiros 1 - Pass Details

Date: 30 November 2020
Orbit: 630 x 663 km, 48.4° (Epoch: 21 January)

Event Time Altitude Azimuth Distance (km) Brightness Sun altitude
Rises 20:01:08 0° 285° (WNW) 2,987 11.6 -35.5°
Reaches altitude 10° 20:03:33 10° 280° (W) 2,068 10.5 -35.9°
Enters shadow 20:05:10 20° 273° (W) 1,488 9.6 -36.2°
Maximum altitude 20:08:08 48° 207° (SSW) 847 - -36.7°
Drops below altitude 10° 20:12:40 10° 133° (SE) 2,041 - -37.4°
Sets 20:15:02 0° 128° (SE) 2,943 - -37.8°
